User: anonymous   Login
Location: Unspecified
(0.0000°N, 0.0000°E)
Time: 08:26:09
(UTC+00:00)
Language:

RS-15 - Orbit

View from above orbital plane
View from above orbital plane
View from above satellite
View from above satellite

Ground track
Ground track

The orbit data is extracted from the following two-line orbital elements,

1 23439U 94085A   19287.91781512 -.00000048 +00000-0 -15734-3 0  9995
2 23439 064.8147 284.9369 0145232 090.1706 271.5860 11.27568316021220
Epoch (UTC): 14 October 2019 22:01:39
Eccentricity: 0.0145232
inclination: 64.8147°
perigee height: 1900 km
apogee height: 2144 km
right ascension of ascending node: 284.9369°
argument of perigee: 90.1706°
revolutions per day: 11.27568316
mean anomaly at epoch: 271.5860°
orbit number at epoch: 2122

The dashed part of the orbit path shows where the satellite is in the earth's shadow,  

DLR